Stations météo

réclame
Mon MeteoGroup
Finisterre, Espagne (8040): Température de l'air & dewpoint: 12.06.2018 15:00:00 - 18.06.2018 15:00:00 (CEST)Finisterre, Espagne (8040): Vitesse du vent & gusts: 12.06.2018 15:00:00 - 18.06.2018 15:00:00 (CEST)Finisterre, Espagne (8040): Direction du vent: 12.06.2018 15:00:00 - 18.06.2018 15:00:00 (CEST)Finisterre, Espagne (8040): reduced air pressure: 12.06.2018 15:00:00 - 18.06.2018 15:00:00 (CEST)Finisterre, Espagne (8040): visibility: 12.06.2018 15:00:00 - 18.06.2018 15:00:00 (CEST)Finisterre, Espagne (8040): Ensoleillement: 12.06.2018 15:00:00 - 18.06.2018 15:00:00 (CEST)Finisterre, Espagne (8040): Quantités de précipitations: 12.06.2018 15:00:00 - 18.06.2018 15:00:00 (CEST)
Date & Time tt [°C] td [°C] ff [km/h] ff [knt] fx [km/h] fx [knt] dd ppp [hPa] vv [km] sd [min] rr [mm]
18.06.2018 15:00:00 18,0 15,3 34 18 53 29 NNE 1023,5 11 60 0,0
18.06.2018 14:00:00 18,4 15,3 35 19 48 26 NNE 1023,9 16 60 -
18.06.2018 13:00:00 19,9 15,8 32 17 60 33 NE 1024,0 13 60 0,0
18.06.2018 12:00:00 18,9 15,8 29 15 58 31 NE 1023,9 14 60 0,0
18.06.2018 11:00:00 17,5 15,2 34 18 58 32 NE 1024,1 15 59 0,0
18.06.2018 10:00:00 16,0 14,5 37 20 68 37 NE 1024,0 14 33 0,0
18.06.2018 09:00:00 14,8 14,1 41 22 67 36 ENE 1024,1 13 1 0,0
18.06.2018 08:00:00 14,3 13,7 41 22 64 34 NE 1024,0 8 0 -
18.06.2018 07:00:00 14,4 13,8 31 17 55 30 NE 1024,4 6 0 0,0
18.06.2018 06:00:00 14,4 13,8 29 16 49 26 NE 1024,4 4,5 0 0,0
18.06.2018 05:00:00 14,4 13,8 33 18 52 28 NNE 1024,8 0,2 0 0,0
18.06.2018 04:00:00 14,5 13,9 32 18 46 25 NE 1024,7 0,3 0 0,0
18.06.2018 03:00:00 14,7 14,0 26 14 46 25 NNE 1025,1 0,9 0 0,0
18.06.2018 02:00:00 15,0 14,3 25 13 39 21 NE 1025,7 0,2 0 -
18.06.2018 01:00:00 15,0 14,2 30 16 42 23 NNE 1025,7 0,2 0 0,0
18.06.2018 00:00:00 15,0 14,0 35 19 43 23 NE 1025,7 7 0 0,0
17.06.2018 23:00:00 14,8 13,7 29 16 38 21 NNE 1025,6 6 0 0,0
17.06.2018 22:00:00 15,8 13,9 29 16 38 20 NNE 1025,2 11 0 0,0
17.06.2018 21:00:00 16,6 14,0 29 16 48 26 NNE 1025,1 13 45 0,0
17.06.2018 20:00:00 16,2 13,4 34 18 53 29 NNE 1024,8 12 60 -
17.06.2018 19:00:00 17,0 13,4 34 19 50 27 NNE 1024,8 15 60 0,0
17.06.2018 18:00:00 17,1 13,3 35 19 53 29 NNE 1024,6 11 60 0,0
17.06.2018 17:00:00 16,6 13,2 37 20 61 33 NNE 1024,7 13 60 0,0
17.06.2018 16:00:00 15,9 12,4 40 22 53 29 NNE 1024,8 13 60 0,0
17.06.2018 15:00:00 16,5 12,8 29 16 47 26 NNE 1024,9 15 60 0,0
17.06.2018 14:00:00 15,5 12,1 34 18 53 28 NNE 1025,0 13 60 -
17.06.2018 13:00:00 15,1 11,7 32 18 50 27 NNE 1025,1 14 60 0,0
17.06.2018 12:00:00 14,8 11,3 32 17 45 24 NNE 1024,6 13 60 0,0
17.06.2018 11:00:00 14,6 11,0 29 16 40 22 NNE 1024,6 12 60 0,0
17.06.2018 10:00:00 14,8 11,2 23 12 42 23 NE 1024,4 12 60 0,0
17.06.2018 09:00:00 13,7 11,0 27 15 47 25 NE 1024,4 12 56 0,0
17.06.2018 08:00:00 12,7 10,8 32 17 48 26 NE 1023,9 10 36 -
17.06.2018 07:00:00 12,3 10,5 29 16 51 27 NE 1023,6 11 0 0,0
17.06.2018 06:00:00 12,4 10,6 35 19 52 28 NNE 1022,9 11 0 0,0
17.06.2018 05:00:00 12,6 10,9 31 17 48 26 NE 1023,2 11 0 0,0
17.06.2018 04:00:00 12,7 10,9 29 16 55 30 NE 1023,3 10 0 0,0
17.06.2018 03:00:00 12,7 11,2 34 18 52 28 NE 1023,1 9 0 0,0
17.06.2018 02:00:00 12,8 11,6 37 20 55 30 NNE 1022,8 8 0 -
17.06.2018 01:00:00 12,8 11,7 32 17 49 26 NE 1023,1 7 0 0,0
17.06.2018 00:00:00 12,9 11,1 30 16 50 27 NNE 1023,1 8 0 0,0
16.06.2018 23:00:00 13,3 11,6 34 19 53 28 NNE 1022,6 8 0 0,0
16.06.2018 22:00:00 13,9 12,1 32 17 53 28 NNE 1022,2 8 0 0,0
16.06.2018 21:00:00 15,4 12,1 29 15 51 28 NNE 1021,5 10 36 0,0
16.06.2018 20:00:00 15,3 12,4 32 17 51 28 NNE 1021,2 14 5 -
16.06.2018 19:00:00 16,0 12,7 31 17 50 27 NNE 1021,3 13 35 0,0
16.06.2018 18:00:00 14,3 13,3 32 18 53 29 NNE - - 8 0,0
16.06.2018 17:00:00 15,2 13,3 28 15 46 25 NNE 1021,3 14 9 0,0
16.06.2018 16:00:00 14,5 12,7 32 17 46 25 NNE 1021,5 13 0 0,0
16.06.2018 15:00:00 15,2 12,1 29 15 41 22 NNE 1021,2 14 12 0,0
16.06.2018 14:00:00 15,6 12,3 27 14 39 21 N 1021,1 12 60 -
16.06.2018 13:00:00 15,4 11,8 25 13 35 19 N 1021,1 20 57 0,0
16.06.2018 12:00:00 15,3 11,9 18 10 27 15 NNE 1021,0 12 60 0,0
16.06.2018 11:00:00 14,7 11,9 18 10 27 14 NNE 1021,1 16 60 0,0
16.06.2018 10:00:00 14,6 11,8 15 8 29 16 NNE 1020,7 13 54 0,0
16.06.2018 09:00:00 13,4 11,2 19 10 29 16 NE 1020,4 17 52 0,0
16.06.2018 08:00:00 12,6 11,0 22 12 34 18 NNE 1020,2 12 42 -
16.06.2018 07:00:00 12,2 10,8 26 14 39 21 NNE 1020,0 12 0 0,0
16.06.2018 06:00:00 12,1 10,6 27 14 37 20 NNE 1019,8 11 0 0,0
16.06.2018 05:00:00 12,0 10,4 25 13 39 21 NNE 1019,9 12 0 0,0
16.06.2018 04:00:00 12,1 10,3 29 16 41 22 NNE 1019,8 13 0 0,0
16.06.2018 03:00:00 12,4 10,8 31 17 57 31 NNE 1020,3 11 0 0,0
16.06.2018 02:00:00 12,3 10,2 29 16 39 21 NNE 1020,2 12 0 -
16.06.2018 01:00:00 12,3 10,2 28 15 39 21 NNE 1020,4 14 0 0,0
16.06.2018 00:00:00 12,2 10,4 27 15 40 21 NE 1020,4 12 0 0,0
15.06.2018 23:00:00 12,8 10,6 28 15 40 22 NE 1020,0 13 0 0,0
15.06.2018 22:00:00 13,8 11,1 29 15 48 26 NNE 1019,8 11 0 0,0
15.06.2018 21:00:00 14,6 11,6 27 15 46 25 NNE 1019,7 12 41 0,0
15.06.2018 20:00:00 15,5 11,7 26 14 56 31 NNE 1019,7 11 60 -
15.06.2018 19:00:00 14,9 11,7 40 22 61 33 NNE 1019,7 11 60 0,0
15.06.2018 18:00:00 15,1 11,4 37 20 57 31 NNE 1019,9 13 60 0,0
15.06.2018 17:00:00 16,0 12,0 32 17 49 26 NNE 1020,2 12 60 0,0
15.06.2018 16:00:00 15,9 12,2 29 16 48 26 NNE 1020,5 - 35 0,0
15.06.2018 15:00:00 14,7 11,9 31 17 50 27 NNE 1020,9 - 0 0,0
15.06.2018 14:00:00 15,0 11,8 24 13 44 24 NNE 1020,9 - 22 -
15.06.2018 13:00:00 14,9 12,0 23 12 46 25 NNE 1020,9 - 47 0,0
15.06.2018 12:00:00 13,6 11,8 29 16 52 28 NNE 1021,0 - 1 0,0
15.06.2018 11:00:00 12,7 12,1 31 17 55 30 NNE 1020,9 - 3 0,0
15.06.2018 10:00:00 12,4 11,8 25 14 58 31 NNE 1020,3 - 0 0,0
15.06.2018 09:00:00 12,3 11,7 37 20 55 30 NNE 1019,7 - 0 0,0
15.06.2018 08:00:00 12,9 12,3 32 17 49 26 NNE 1019,4 - 0 -
15.06.2018 07:00:00 13,0 12,4 32 17 54 29 NNE 1019,4 - 0 0,0
15.06.2018 06:00:00 13,2 12,5 32 17 54 29 NNE 1019,1 - 0 0,0
15.06.2018 05:00:00 13,2 12,5 30 16 50 27 NNE 1019,3 - 0 0,0
15.06.2018 04:00:00 13,6 13,0 32 17 48 26 NNE 1019,5 - 0 0,0
15.06.2018 03:00:00 14,0 13,4 29 16 45 24 NNE 1019,3 - 0 0,0
15.06.2018 02:00:00 14,2 13,6 31 17 45 24 NNE 1019,5 - 0 -
15.06.2018 01:00:00 14,6 13,9 32 17 45 24 NNE 1019,8 - 0 0,0
15.06.2018 00:00:00 14,9 14,2 29 16 40 22 NNE 1019,9 - 0 0,0
14.06.2018 23:00:00 15,1 14,4 22 12 39 21 NNE 1020,0 - 0 0,0
14.06.2018 22:00:00 15,2 14,5 32 17 40 22 NNE 1019,7 - 0 0,0
14.06.2018 21:00:00 15,2 14,4 23 13 36 19 N 1019,9 - 0 0,0
14.06.2018 20:00:00 15,2 14,2 26 14 34 19 N 1019,8 - 6 -
14.06.2018 19:00:00 16,3 14,6 21 11 33 18 N 1019,9 - 58 0,0
14.06.2018 18:00:00 16,3 14,3 22 12 33 18 N 1020,1 16 60 0,0
14.06.2018 17:00:00 16,0 13,7 22 12 33 18 N 1020,3 14 60 0,0
14.06.2018 16:00:00 16,2 13,7 19 11 34 19 N 1020,6 17 60 0,0
14.06.2018 15:00:00 14,9 12,2 28 15 36 19 N 1020,9 18 60 0,0
14.06.2018 14:00:00 15,6 12,7 22 12 35 19 N 1020,9 15 60 -
14.06.2018 13:00:00 15,0 11,8 23 12 33 18 N 1021,1 17 60 0,0
14.06.2018 12:00:00 15,0 11,6 18 10 27 15 N 1021,0 20 60 0,2
14.06.2018 11:00:00 14,7 12,0 16 9 23 12 N 1021,1 - 60 0,0
14.06.2018 10:00:00 14,7 11,7 14 8 24 13 NE 1021,1 - 60 0,0
14.06.2018 09:00:00 13,5 11,2 21 12 26 14 NNE 1021,3 - 56 0,0
14.06.2018 08:00:00 12,1 10,9 19 11 31 17 NNE 1021,2 - 44 -
14.06.2018 07:00:00 11,7 10,8 23 12 31 17 NE 1020,9 - 0 0,0
14.06.2018 06:00:00 11,8 10,6 24 13 34 18 NE 1021,0 - 0 0,0
14.06.2018 05:00:00 12,1 10,9 23 12 31 17 NNE 1021,2 - 0 0,0
14.06.2018 04:00:00 12,5 10,9 17 9 30 16 NNE 1021,8 - 0 0,0
14.06.2018 03:00:00 12,4 10,8 22 12 35 19 NNE 1022,1 - 0 0,0
14.06.2018 02:00:00 12,3 10,5 31 17 40 22 NE 1022,4 - 0 -
14.06.2018 01:00:00 12,2 10,8 31 17 41 22 NE 1022,5 - 0 0,0
14.06.2018 00:00:00 12,3 10,8 30 16 39 21 NE 1022,5 - 0 0,0
13.06.2018 23:00:00 12,7 10,9 29 16 43 23 NNE 1022,4 - 0 0,0
13.06.2018 22:00:00 13,2 11,2 28 15 43 23 NNE 1022,3 - 0 0,0
13.06.2018 21:00:00 14,1 11,6 28 15 48 26 NNE 1022,3 - 39 0,0
13.06.2018 20:00:00 14,3 12,0 31 17 54 29 N 1022,1 15 60 -
13.06.2018 19:00:00 14,6 12,3 29 15 50 27 N 1022,1 15 60 0,0
13.06.2018 18:00:00 14,6 12,6 31 17 55 30 N 1022,6 15 60 0,0
13.06.2018 17:00:00 14,6 12,4 35 19 58 31 N 1022,9 14 60 0,0
13.06.2018 16:00:00 14,5 12,5 30 16 53 28 N 1023,4 13 47 0,0
13.06.2018 15:00:00 14,5 12,7 34 18 51 28 N 1023,4 12 47 0,0
13.06.2018 14:00:00 14,5 12,7 27 15 46 25 N 1023,7 13 31 -
13.06.2018 13:00:00 14,2 12,5 28 15 45 25 N 1023,9 14 45 0,0
13.06.2018 12:00:00 14,1 12,6 24 13 37 20 N 1023,8 13 50 0,0
13.06.2018 11:00:00 14,0 12,5 23 12 36 19 NNE 1023,9 11 32 0,0
13.06.2018 10:00:00 14,0 12,4 22 12 33 18 NNE 1024,0 13 20 0,0
13.06.2018 09:00:00 13,3 10,9 16 8 31 17 NNE 1023,9 14 0 0,0
13.06.2018 08:00:00 12,8 11,2 21 11 29 16 NE 1023,7 11 0 -
13.06.2018 07:00:00 12,7 11,4 16 9 29 15 NNE 1023,5 9 0 0,0
13.06.2018 06:00:00 12,8 11,7 23 12 34 18 NNE 1023,4 9 0 0,0
13.06.2018 05:00:00 12,9 12,0 24 13 38 20 NNE 1023,7 8 0 0,0
13.06.2018 04:00:00 13,2 12,2 23 12 37 20 NNE 1023,9 5 0 0,0
13.06.2018 03:00:00 13,1 11,7 30 16 45 24 NNE 1023,8 9 0 0,0
13.06.2018 02:00:00 13,2 12,1 24 13 45 25 NNE 1024,0 8 0 -
13.06.2018 01:00:00 13,4 12,6 34 19 50 27 NNE 1023,5 6 0 0,0
13.06.2018 00:00:00 13,7 12,7 29 16 48 26 NNE 1023,2 0,2 0 0,0
12.06.2018 23:00:00 13,4 11,8 29 15 36 20 NNE 1022,5 11 0 0,0
12.06.2018 22:00:00 13,7 11,6 23 12 32 17 NE 1022,2 16 0 0,0
12.06.2018 21:00:00 14,0 12,5 20 11 32 17 NNE 1022,1 13 6 0,0
12.06.2018 20:00:00 14,3 13,1 19 10 29 16 N 1021,9 8 46 -
12.06.2018 19:00:00 14,7 13,5 19 11 27 15 N 1021,8 3,0 40 0,0
12.06.2018 18:00:00 15,1 13,5 17 9 33 18 N 1022,1 12 58 0,0
12.06.2018 17:00:00 14,7 13,1 22 12 31 17 N 1022,2 19 40 0,0
12.06.2018 16:00:00 14,6 12,8 22 12 29 16 N 1022,3 16 57 0,0
12.06.2018 15:00:00 14,4 12,4 19 10 29 16 N 1022,5 12 8 0,0

tt = Température de l'air
td = dewpoint
ff = Vitesse du vent
fx = gusts
dd = Direction du vent
ppp = reduced air pressure
vv = visibility
sd = Ensoleillement
rr = Quantités de précipitations

stations d'obs. à proximité